Location: �clusier
(49.9361°N, 2.7869°E)
Time: 14:12:41
(UTC+00:00)

Cosmos 1455 - Visible Passes

Search period start: 22 October 2021 00:00
Search period end: 01 November 2021 00:00
Orbit: 496 x 520 km, 82.5° (Epoch: 22 October)

Date Brightness Start Highest point End Pass type
(mag) Time Alt. Az. Time Alt. Az. Time Alt. Az.
23 Oct 2.9 05:47:54 10° N 05:51:38 57° ENE 05:55:17 10° SSE visible
24 Oct 3.4 05:30:42 10° N 05:34:19 44° ENE 05:37:53 10° SSE visible
25 Oct 3.9 05:13:30 10° N 05:16:59 35° ENE 05:20:25 10° SE visible
25 Oct 4.8 19:06:28 10° SSW 19:06:46 12° SSW 19:06:46 12° SSW visible
26 Oct 4.3 04:56:21 10° N 04:59:39 28° ENE 05:02:54 10° SE visible
26 Oct 2.8 18:49:10 10° S 18:51:54 46° S 18:51:54 46° S visible
27 Oct 4.7 04:39:14 10° NNE 04:42:17 23° ENE 04:45:18 10° SE visible
27 Oct 2.0 18:31:55 10° S 18:35:42 72° E 18:37:11 35° NNE visible
27 Oct 5.4 20:10:17 10° W 20:11:46 12° WNW 20:12:12 12° NW visible
28 Oct 5.0 04:22:12 10° NNE 04:24:55 19° ENE 04:27:37 10° ESE visible
28 Oct 2.6 05:57:10 10° NNW 06:00:39 38° W 06:04:08 10° SSW visible
28 Oct 2.1 18:14:43 10° S 18:18:26 56° E 18:22:08 10° NNE visible
28 Oct 5.2 19:52:13 10° W 19:54:21 14° WNW 19:56:30 10° NNW visible
29 Oct 5.2 04:05:14 10° NNE 04:07:31 15° ENE 04:09:48 10° ESE visible
29 Oct 2.3 05:39:46 10° NNW 05:43:24 49° W 05:47:00 10° S visible
29 Oct 2.4 17:57:34 10° SSE 18:01:10 43° E 18:04:46 10° NNE visible
29 Oct 5.0 19:34:21 10° WSW 19:36:58 18° WNW 19:39:35 10° NNW visible
30 Oct 5.4 03:48:25 10° NE 03:50:07 13° ENE 03:51:48 10° E visible
30 Oct 2.1 05:22:25 10° NNW 05:26:08 64° W 05:29:49 10° S visible
30 Oct 2.8 17:40:29 10° SSE 17:43:55 34° E 17:47:21 10° NNE visible
30 Oct 4.7 19:16:37 10° WSW 19:19:35 21° WNW 19:22:33 10° NNW visible
31 Oct 5.6 03:32:12 10° NE 03:32:42 10° ENE 03:33:12 10° ENE visible
31 Oct 2.0 05:05:06 10° NNW 05:08:51 83° W 05:12:35 10° S visible
31 Oct 3.1 17:23:28 10° SSE 17:26:41 27° E 17:29:54 10° NNE visible
31 Oct 4.3 18:59:00 10° SW 19:02:13 26° WNW 19:05:26 10° NNW visible
